[[{"header":{"parameterUnit":"m.s-1","parameterCategory":2,"la1":30.2991,"la2":30.254,"lo1":-89.0895,"lo2":-89.0444,"dy":0.0017,"dx":0.0017,"nx":28,"ny":28,"refTime":"2023-08-21T21:00:00:Z","depth":"0","parameterNumber":2,"parameterNumberName":"U-component_of_CURRENTS"},"data":[0,0,0,0,0,0,0,0,0,0,0,0,0,0,0,0,0,0,0,0,0,0,0,0,0,0,0,0,0,0,0,0,0,0,0,0,0,0,0,0,0,0,0,0,0,0,0,0,0,0,0,0,0,0,0,0,0,0,0.2235,0.2235,0,0.2211,0.2211,0.221,0.2187,0.2187,0.2187,0.2187,0.2155,0.2154,0.2153,0,0,0,0,0,0,0,0,0,0,0,0,0,0.2179,0.218,0.2235,0.2235,0.2235,0.2211,0.2211,0.221,0.2187,0.2187,0.2187,0.2187,0.2155,0.2154,0.2153,0,0,0,0,0,0,0,0,0,0,0,0,0,0.2182,0.2181,0.2235,0.2222,0.2221,0.2211,0.2211,0.221,0.2187,0.2187,0.2187,0.2187,0.2155,0.2154,0.2153,0.2149,0,0,0.215,0.2149,0,0,0,0,0,0,0,0,0.2182,0.2184,0.2224,0.2223,0.2222,0.2204,0.2179,0.219,0.2187,0.2198,0.2187,0.2187,0.2172,0.217,0.2162,0.2147,0.2146,0.215,0.2149,0.2148,0.2148,0,0,0,0,0,0,0,0.2182,0.2184,0.2223,0.2224,0.2223,0.219,0.219,0.218,0.2184,0.2197,0.2196,0.2196,0.2171,0.2163,0.2161,0.2145,0.215,0.2149,0.2148,0.2147,0.2163,0.2164,0,0,0,0,0,0,0.2194,0.2185,0.2224,0.2223,0.2204,0.2191,0.2192,0.2208,0.2184,0.2181,0.2197,0.2196,0.2166,0.2163,0.216,0.2182,0.2148,0.2147,0.2147,0.2162,0.2163,0.2164,0,0,0,0,0,0,0.2193,0.2199,0.2225,0.2204,0.2205,0.2193,0.2211,0.2208,0.2205,0.2185,0.2181,0.2198,0.2165,0.2162,0.2164,0.218,0.2147,0.2146,0.2161,0.2162,0.2164,0.2208,0,0,0,0,0,0,0.2192,0.2199,0.2211,0.2205,0.2207,0.2226,0.2211,0.2207,0.2206,0.2205,0.2185,0.2181,0.2165,0.2166,0.2163,0.2177,0.2145,0.2159,0.2161,0.2163,0.2205,0.2211,0.2216,0,0,0,0,0,0.219,0.22,0.2213,0.2217,0.2227,0.2226,0.2224,0.2212,0.2207,0.2208,0.2201,0.2182,0.2178,0.2166,0.2162,0.2177,0.2158,0.2161,0.2163,0.2202,0.2209,0.2215,0,0,0,0,0,0,0.2175,0.2199,0.2212,0.2228,0.2235,0.2223,0.2221,0.2218,0.2212,0.2216,0.2192,0.2189,0.2197,0.2184,0.2172,0.2189,0.2166,0.2168,0.2198,0.2204,0.2209,0.2225,0.2144,0,0,0,0,0,0.2183,0.2198,0.2217,0.2227,0.2237,0.2234,0.2232,0.2233,0.2228,0.2225,0.2208,0.2202,0.2204,0.2202,0.2196,0.2202,0.2225,0.2211,0.2217,0.2221,0.2233,0.2292,0.2304,0.2173,0.2172,0.2172,0,0,0.2176,0.2193,0.22,0.2225,0.223,0.2248,0.2232,0.224,0.225,0.2223,0.2224,0.2218,0.2211,0.222,0.2223,0.221,0.2271,0.2224,0.2228,0.2237,0.2296,0.2309,0.2321,0.2174,0.2174,0.2174,0,0,0.2167,0.2195,0.2207,0.2227,0.2249,0.2254,0.2262,0.2264,0.2263,0.2271,0.2259,0.2269,0.2253,0.226,0.2261,0.2295,0.2298,0.2287,0.2324,0.2382,0.2393,0.2404,0.2453,0.2468,0.2289,0.2289,0.2289,0,0.2158,0.2185,0.2206,0.2232,0.2248,0.2262,0.2282,0.2289,0.2287,0.2297,0.2279,0.2293,0.2278,0.2313,0.2319,0.2308,0.2338,0.2298,0.239,0.2401,0.2411,0.2459,0.2474,0.2292,0.2291,0.2291,0.2291,0,0.217,0.2194,0.2202,0.2248,0.227,0.2286,0.2316,0.2332,0.2333,0.234,0.2368,0.2358,0.2372,0.2365,0.2347,0.2408,0.2407,0.2391,0.2375,0.2427,0.2474,0.2489,0.2295,0.2294,0.2294,0.2293,0,0,0.2122,0.2196,0.2195,0.2227,0.2282,0.2299,0.234,0.2374,0.241,0.2411,0.2448,0.2448,0.2453,0.2456,0.2444,0.248,0.2566,0.2463,0.2465,0.2515,0.2697,0.2783,0.2807,0.2569,0.2572,0.2574,0.2703,0,0.2115,0.2166,0.2203,0.2246,0.2278,0.2327,0.2363,0.2408,0.2437,0.2477,0.2493,0.2521,0.2487,0.25,0.2536,0.2556,0.2608,0.2532,0.2637,0.2641,0.2713,0.2829,0.2879,0.3006,0.2718,0.272,0.2722,0,0.2106,0.2143,0.2189,0.2265,0.2284,0.2317,0.2398,0.2434,0.2512,0.2538,0.2588,0.2602,0.2656,0.2617,0.271,0.2665,0.2693,0.2706,0.2711,0.2789,0.2756,0.2907,0.3045,0.2925,0.2746,0.2744,0.2742,0,0.2061,0.2127,0.2161,0.219,0.2282,0.2314,0.2363,0.245,0.2492,0.2586,0.2634,0.2698,0.2738,0.2788,0.2823,0.2775,0.2931,0.287,0.298,0.2985,0.3049,0.3056,0.309,0.2962,0.2962,0.2962,0.2961,0,0.2038,0.2059,0.2146,0.2171,0.2214,0.2298,0.2362,0.2423,0.2525,0.2598,0.2662,0.2741,0.2785,0.287,0.2883,0.3008,0.2995,0.303,0.3046,0.3066,0.3073,0.2987,0.2871,0.2966,0.2965,0.2964,0.2964,0,0.1974,0.2032,0.2072,0.2166,0.2195,0.2228,0.2343,0.24,0.251,0.2614,0.265,0.2787,0.2925,0.2983,0.3081,0.3109,0.3127,0.3236,0.3258,0.3277,0.3263,0.3149,0.3093,0.2991,0.3388,0.3391,0.3394,0,0.1941,0.1962,0.2048,0.2075,0.2112,0.2183,0.2239,0.2362,0.2442,0.265,0.2704,0.2878,0.3009,0.3215,0.3329,0.3444,0.3242,0.3528,0.3453,0.3319,0.3201,0.2992,0.289,0.3545,0.3548,0.3551,0.3554,0,0.1876,0.1909,0.1949,0.2008,0.2059,0.2122,0.2226,0.2284,0.2458,0.2579,0.2768,0.2895,0.3175,0.3361,0.3549,0.361,0.3383,0.3596,0.3456,0.3352,0.3127,0.3019,0.3376,0.3581,0.3579,0.3577,0.3575,0.3574,0.1811,0.1822,0.1887,0.1938,0.199,0.2062,0.211,0.2253,0.2382,0.2584,0.2749,0.2966,0.331,0.3617,0.3672,0.379,0.3574,0.37,0.3581,0.3387,0.3265,0.3693,0.3914,0.3913,0.3912,0.3912,0.3911,0,0.1741,0.178,0.1823,0.1887,0.1923,0.198,0.2101,0.2163,0.2308,0.2539,0.2723,0.3116,0.3387,0.363,0.3899,0.3798,0.3606,0.3634,0.3328,0.3232,0.3661,0.3647,0.3821,0.3821,0.3821,0.3822,0.3822,0.3822,0.1706,0.1729,0.177,0.1811,0.1854,0.1893,0.1947,0.206,0.2222,0.2478,0.2715,0.2922,0.3321,0.3625,0.3708,0.3652,0.3283,0.3197,0.2992,0.3287,0.3281,0.3275,0.3237,0.3322,0.3321,0.2543,0.2537,0.2532]},{"header":{"parameterUnit":"m.s-1","parameterCategory":2,"la1":30.2991,"la2":30.254,"lo1":-89.0895,"lo2":-89.0444,"dy":0.0017,"dx":0.0017,"nx":28,"ny":28,"refTime":"2023-08-21T21:00:00:Z","depth":"0","parameterNumber":3,"parameterNumberName":"V-component_of_CURRENTS"},"data":[0,0,0,0,0,0,0,0,0,0,0,0,0,0,0,0,0,0,0,0,0,0,0,0,0,0,0,0,0,0,0,0,0,0,0,0,0,0,0,0,0,0,0,0,0,0,0,0,0,0,0,0,0,0,0,0,0,0,-0.1,-0.1,0,-0.1047,-0.1048,-0.1048,-0.1087,-0.1087,-0.1088,-0.1089,-0.1189,-0.1191,-0.1193,0,0,0,0,0,0,0,0,0,0,0,0,0,-0.0921,-0.0922,-0.1,-0.1,-0.1001,-0.1047,-0.1048,-0.1048,-0.1087,-0.1087,-0.1088,-0.1089,-0.1188,-0.1191,-0.1193,0,0,0,0,0,0,0,0,0,0,0,0,0,-0.0959,-0.0922,-0.0999,-0.1027,-0.103,-0.1047,-0.1048,-0.1048,-0.1087,-0.1087,-0.1088,-0.1089,-0.1187,-0.119,-0.1194,-0.1196,0,0,-0.1203,-0.1205,0,0,0,0,0,0,0,0,-0.0956,-0.0961,-0.1022,-0.1025,-0.1029,-0.1064,-0.1057,-0.1101,-0.1086,-0.1063,-0.1089,-0.1089,-0.1152,-0.1158,-0.1162,-0.1201,-0.1205,-0.1204,-0.1206,-0.1207,-0.1208,0,0,0,0,0,0,0,-0.0954,-0.0959,-0.1017,-0.1023,-0.1027,-0.103,-0.1036,-0.1065,-0.1102,-0.1065,-0.1069,-0.1077,-0.1154,-0.1159,-0.1165,-0.1207,-0.1204,-0.1206,-0.1208,-0.121,-0.1292,-0.1292,0,0,0,0,0,0,-0.0952,-0.0957,-0.1015,-0.1018,-0.0996,-0.1031,-0.1038,-0.105,-0.1101,-0.1109,-0.1076,-0.1078,-0.1153,-0.1161,-0.1169,-0.1187,-0.1207,-0.121,-0.1212,-0.1291,-0.1292,-0.1292,0,0,0,0,0,0,-0.095,-0.0957,-0.1013,-0.099,-0.0997,-0.1032,-0.1045,-0.1051,-0.1058,-0.1108,-0.1118,-0.1078,-0.1154,-0.1164,-0.1197,-0.1191,-0.1211,-0.1214,-0.1291,-0.1292,-0.1292,-0.1216,0,0,0,0,0,0,-0.0947,-0.0956,-0.0953,-0.099,-0.0999,-0.1022,-0.1044,-0.1051,-0.1062,-0.1066,-0.1113,-0.1123,-0.1155,-0.1192,-0.12,-0.1196,-0.1217,-0.1291,-0.1291,-0.1292,-0.1218,-0.1214,-0.121,0,0,0,0,0,-0.0945,-0.0942,-0.0952,-0.0959,-0.0997,-0.1022,-0.1026,-0.1052,-0.1061,-0.1061,-0.1096,-0.1122,-0.1201,-0.1195,-0.1204,-0.12,-0.1291,-0.1291,-0.1292,-0.122,-0.1214,-0.121,0,0,0,0,0,0,-0.0903,-0.0947,-0.0959,-0.0969,-0.0992,-0.1029,-0.1029,-0.1047,-0.1071,-0.1076,-0.1121,-0.1133,-0.1159,-0.1194,-0.1185,-0.1228,-0.1252,-0.1254,-0.1194,-0.1189,-0.1185,-0.1166,-0.122,0,0,0,0,0,-0.0892,-0.0903,-0.0944,-0.0947,-0.096,-0.0991,-0.1,-0.1021,-0.1053,-0.1063,-0.1097,-0.1136,-0.1167,-0.1189,-0.1221,-0.1243,-0.1275,-0.125,-0.1246,-0.1242,-0.1235,-0.1277,-0.1275,-0.1294,-0.1294,-0.1294,0,0,-0.0873,-0.09,-0.0903,-0.0938,-0.0957,-0.0962,-0.0998,-0.1014,-0.1015,-0.1071,-0.108,-0.1119,-0.117,-0.1192,-0.1208,-0.1222,-0.1254,-0.1243,-0.1239,-0.1234,-0.1277,-0.1275,-0.1273,-0.1294,-0.1294,-0.1294,0,0,-0.0843,-0.0868,-0.0867,-0.0882,-0.0914,-0.0938,-0.0941,-0.0979,-0.0993,-0.1011,-0.1051,-0.1084,-0.1132,-0.1164,-0.1187,-0.1181,-0.1227,-0.1199,-0.1165,-0.1205,-0.1203,-0.1202,-0.1236,-0.1239,-0.1201,-0.1201,-0.1201,0,-0.0819,-0.0828,-0.0866,-0.0866,-0.0869,-0.0923,-0.0914,-0.0935,-0.0977,-0.0984,-0.1007,-0.1074,-0.1114,-0.1143,-0.1143,-0.1169,-0.1202,-0.1174,-0.1197,-0.1197,-0.1197,-0.1233,-0.1236,-0.1197,-0.1198,-0.1198,-0.1198,0,-0.0792,-0.0791,-0.0791,-0.0809,-0.0813,-0.0821,-0.0855,-0.087,-0.0896,-0.0919,-0.0952,-0.1011,-0.1052,-0.1074,-0.1106,-0.113,-0.1156,-0.1181,-0.1202,-0.119,-0.1229,-0.1234,-0.1192,-0.1193,-0.1195,-0.1195,0,0,-0.0769,-0.0772,-0.0771,-0.0757,-0.0786,-0.0786,-0.079,-0.0811,-0.0811,-0.0861,-0.0861,-0.0925,-0.0964,-0.0993,-0.1046,-0.1087,-0.1115,-0.1132,-0.1135,-0.1152,-0.1204,-0.1153,-0.1155,-0.1147,-0.1147,-0.1148,-0.1228,0,-0.074,-0.0716,-0.0727,-0.0693,-0.0684,-0.0716,-0.0711,-0.0731,-0.0762,-0.0779,-0.0848,-0.0873,-0.0932,-0.0954,-0.1002,-0.1088,-0.1127,-0.1091,-0.1226,-0.1229,-0.1175,-0.1158,-0.1031,-0.1086,-0.1234,-0.1235,-0.1235,0,-0.0718,-0.0705,-0.0661,-0.0636,-0.0633,-0.0618,-0.0618,-0.062,-0.0661,-0.0685,-0.0731,-0.0786,-0.0851,-0.0901,-0.1037,-0.1015,-0.1097,-0.1167,-0.1172,-0.1153,-0.1188,-0.1126,-0.1091,-0.1208,-0.1244,-0.1243,-0.1243,0,-0.0685,-0.0659,-0.0617,-0.0608,-0.0591,-0.0571,-0.0569,-0.0591,-0.0585,-0.0626,-0.0634,-0.0723,-0.0765,-0.0883,-0.1018,-0.1035,-0.1162,-0.1205,-0.1238,-0.1236,-0.1167,-0.1157,-0.1246,-0.129,-0.129,-0.1289,-0.1289,0,-0.0655,-0.062,-0.0596,-0.057,-0.0517,-0.0522,-0.0484,-0.0495,-0.0512,-0.05,-0.0582,-0.0599,-0.0764,-0.0855,-0.099,-0.1115,-0.1141,-0.1221,-0.1248,-0.1137,-0.1123,-0.1255,-0.1361,-0.1292,-0.1292,-0.1291,-0.1291,0,-0.0609,-0.0601,-0.0544,-0.0511,-0.0494,-0.045,-0.0417,-0.0401,-0.0428,-0.0416,-0.0424,-0.0511,-0.0618,-0.0772,-0.0955,-0.1062,-0.1245,-0.1235,-0.1085,-0.1091,-0.1223,-0.1329,-0.1457,-0.1521,-0.1288,-0.1287,-0.1286,0,-0.0578,-0.0548,-0.0484,-0.0452,-0.0427,-0.0379,-0.035,-0.0351,-0.0334,-0.0363,-0.035,-0.0434,-0.047,-0.0698,-0.0869,-0.1056,-0.1211,-0.1093,-0.1097,-0.1198,-0.134,-0.1408,-0.1459,-0.0987,-0.0984,-0.0981,-0.0979,0,-0.0513,-0.049,-0.0442,-0.0385,-0.0334,-0.0278,-0.0239,-0.0208,-0.0217,-0.02,-0.0197,-0.0219,-0.0389,-0.048,-0.071,-0.086,-0.1138,-0.1046,-0.1193,-0.1136,-0.1176,-0.1258,-0.0978,-0.0956,-0.0959,-0.096,-0.0961,-0.0962,-0.0457,-0.0415,-0.0368,-0.0311,-0.0253,-0.019,-0.0143,-0.0096,-0.0035,0.0034,-0.0022,0.0058,-0.0087,-0.0354,-0.0633,-0.0925,-0.1011,-0.0992,-0.1123,-0.1189,-0.1215,-0.0875,-0.0856,-0.0858,-0.0859,-0.086,-0.0861,0,-0.0397,-0.0367,-0.0312,-0.0239,-0.0175,-0.0158,-0.008,-0.0018,0.0078,0.0232,0.0285,0.0428,0.0184,-0.013,-0.0522,-0.0881,-0.1064,-0.109,-0.1166,-0.1227,-0.0938,-0.0884,-0.0818,-0.0817,-0.0817,-0.0817,-0.0817,-0.0817,-0.0369,-0.0309,-0.0293,-0.0191,-0.0142,-0.0046,0.0004,0.0125,0.0267,0.0567,0.0799,0.0932,0.0891,-0.0046,-0.0754,-0.1005,-0.1309,-0.1344,-0.157,-0.1369,-0.137,-0.1371,-0.1343,-0.1374,-0.1375,-0.1737,-0.1741,-0.1744]}],[{"header":{"parameterUnit":"m.s-1","parameterCategory":2,"la1":30.2991,"la2":30.254,"lo1":-89.0895,"lo2":-89.0444,"dy":0.0017,"dx":0.0017,"nx":28,"ny":28,"refTime":"2023-08-21T21:00:00:Z","depth":"2","parameterNumber":2,"parameterNumberName":"U-component_of_CURRENTS"},"data":[0,0,0,0,0,0,0,0,0,0,0,0,0,0,0,0,0,0,0,0,0,0,0,0,0,0,0,0,0,0,0,0,0,0,0,0,0,0,0,0,0,0,0,0,0,0,0,0,0,0,0,0,0,0,0,0,0,0,0.2911,0.2912,0,0.2959,0.2959,0.2959,0.2945,0.2945,0.2944,0.2943,0.2932,0.2932,0.2933,0,0,0,0,0,0,0,0,0,0,0,0,0,0.2859,0.2859,0.2911,0.2912,0.2913,0.2959,0.2959,0.2959,0.2945,0.2945,0.2944,0.2943,0.2932,0.2932,0.2933,0,0,0,0,0,0,0,0,0,0,0,0,0,0.2888,0.2859,0.2911,0.2914,0.2915,0.2959,0.2959,0.2959,0.2945,0.2944,0.2943,0.2943,0.2932,0.2932,0.2933,0.2956,0,0,0.2934,0.2934,0,0,0,0,0,0,0,0,0.2886,0.2889,0.2913,0.2914,0.2915,0.2948,0.2937,0.2956,0.2946,0.293,0.2943,0.2942,0.2935,0.2935,0.2942,0.2955,0.2955,0.2934,0.2935,0.2935,0.2935,0,0,0,0,0,0,0,0.2884,0.2888,0.2927,0.2914,0.2916,0.2931,0.2933,0.294,0.2934,0.2932,0.2932,0.2943,0.2935,0.2942,0.2942,0.2955,0.2934,0.2935,0.2935,0.2935,0.3042,0.3044,0,0,0,0,0,0,0.2884,0.2886,0.2925,0.2928,0.2902,0.2932,0.2935,0.2936,0.2935,0.2936,0.2943,0.2942,0.2941,0.2941,0.2941,0.2972,0.2935,0.2935,0.2936,0.3039,0.3042,0.3045,0,0,0,0,0,0,0.2882,0.2887,0.2923,0.2911,0.2917,0.2934,0.2936,0.2937,0.2944,0.2945,0.2944,0.2948,0.2941,0.2941,0.2958,0.2971,0.2935,0.2936,0.3036,0.304,0.3044,0.3032,0,0,0,0,0,0,0.288,0.2885,0.2885,0.2911,0.2918,0.2949,0.2937,0.2939,0.2954,0.2952,0.2949,0.2947,0.294,0.2957,0.2958,0.2971,0.2936,0.3033,0.3038,0.3043,0.3029,0.3035,0.304,0,0,0,0,0,0.2878,0.2881,0.2884,0.289,0.2917,0.295,0.2954,0.2961,0.2955,0.2962,0.2966,0.2947,0.2989,0.2959,0.296,0.2973,0.3031,0.3037,0.3042,0.3027,0.3034,0.304,0,0,0,0,0,0,0.2867,0.2881,0.2885,0.2894,0.2921,0.2948,0.2956,0.2966,0.2976,0.2971,0.2966,0.2966,0.2997,0.2998,0.2965,0.3028,0.3013,0.3019,0.3001,0.3008,0.3013,0.3016,0.2937,0,0,0,0,0,0.2865,0.2862,0.2892,0.2901,0.2912,0.2935,0.2949,0.2959,0.2975,0.2978,0.2975,0.2991,0.3025,0.3022,0.3049,0.3065,0.3107,0.3085,0.309,0.3094,0.3103,0.3195,0.3209,0.3064,0.3064,0.3064,0,0,0.2867,0.2873,0.2875,0.2898,0.2914,0.2936,0.2939,0.2963,0.2985,0.2976,0.299,0.301,0.3041,0.3069,0.3083,0.3062,0.316,0.3101,0.3103,0.3111,0.3203,0.3216,0.3229,0.3068,0.3067,0.3067,0,0,0.2867,0.2872,0.287,0.289,0.2917,0.2939,0.2947,0.2973,0.2985,0.3007,0.3026,0.306,0.3072,0.311,0.313,0.3188,0.3198,0.3191,0.3195,0.3284,0.3296,0.3307,0.3377,0.3394,0.3176,0.3176,0.3176,0,0.287,0.2869,0.288,0.2888,0.2907,0.2939,0.2956,0.2984,0.3012,0.3039,0.3009,0.309,0.3101,0.3176,0.3187,0.3197,0.3239,0.3154,0.3288,0.33,0.3311,0.338,0.34,0.3176,0.3176,0.3176,0.3176,0,0.2874,0.2873,0.2877,0.2892,0.2918,0.294,0.2983,0.3011,0.3022,0.3053,0.3116,0.3137,0.3187,0.3198,0.3195,0.329,0.3292,0.3292,0.3259,0.3324,0.3394,0.3414,0.3177,0.3177,0.3176,0.3176,0,0,0.2877,0.2876,0.2878,0.288,0.2921,0.2945,0.2995,0.3058,0.3105,0.3122,0.3182,0.3228,0.3242,0.327,0.3285,0.3337,0.3441,0.333,0.3334,0.3378,0.3626,0.3412,0.3413,0.3454,0.3457,0.346,0.364,0,0.2877,0.2878,0.2887,0.2907,0.2916,0.2964,0.3009,0.3074,0.3124,0.319,0.3242,0.3302,0.3272,0.3293,0.3345,0.3424,0.3495,0.3392,0.3576,0.3582,0.3365,0.3429,0.3114,0.3228,0.366,0.3663,0.3666,0,0.2877,0.2876,0.2881,0.2908,0.2919,0.294,0.3032,0.3079,0.3195,0.3238,0.3309,0.3355,0.3443,0.3407,0.3565,0.3494,0.3567,0.3617,0.3626,0.3442,0.3404,0.3238,0.3249,0.3699,0.3697,0.3694,0.3692,0,0.2866,0.2877,0.2875,0.2883,0.2922,0.2943,0.2982,0.3088,0.314,0.3279,0.3323,0.3442,0.3487,0.36,0.3659,0.3637,0.3823,0.3822,0.3714,0.3701,0.3477,0.3435,0.3975,0.3975,0.3974,0.3974,0.3973,0,0.2862,0.2852,0.286,0.2857,0.2875,0.2919,0.2971,0.3043,0.315,0.3215,0.3331,0.3394,0.3534,0.3631,0.371,0.3736,0.3875,0.3728,0.3733,0.3461,0.3418,0.3858,0.3842,0.3981,0.3979,0.3978,0.3977,0,0.2822,0.2831,0.282,0.2848,0.2856,0.2867,0.293,0.2977,0.3087,0.3179,0.322,0.3381,0.3505,0.3623,0.3811,0.3761,0.3849,0.3841,0.3485,0.344,0.3671,0.3654,0.3764,0.3758,0.3753,0.3749,0.3745,0,0.2782,0.2776,0.2792,0.2784,0.2779,0.2805,0.2826,0.2933,0.2987,0.3152,0.3187,0.334,0.336,0.3511,0.3525,0.3607,0.3792,0.3366,0.3256,0.3655,0.3652,0.3642,0.3631,0.299,0.298,0.2972,0.2966,0,0.2697,0.2707,0.2698,0.2697,0.2698,0.2721,0.2758,0.2793,0.2923,0.2958,0.3024,0.304,0.3144,0.3033,0.3102,0.3133,0.3308,0.3203,0.3765,0.3042,0.2925,0.2921,0.2937,0.2897,0.2904,0.2909,0.2913,0.2915,0.2608,0.2585,0.2582,0.2573,0.259,0.2605,0.258,0.2626,0.2639,0.2606,0.2753,0.2633,0.2676,0.2559,0.2583,0.2655,0.2873,0.2799,0.2825,0.2859,0.2687,0.2561,0.2435,0.2439,0.2443,0.2446,0.2449,0,0.2454,0.245,0.2453,0.2436,0.2415,0.2471,0.2497,0.2397,0.232,0.2304,0.2232,0.198,0.1896,0.2056,0.1995,0.2013,0.2038,0.2023,0.2035,0.21,0.216,0.1956,0.151,0.1508,0.1506,0.1504,0,0,0.2361,0.23,0.2314,0.2238,0.224,0.2155,0.2135,0.1999,0.1932,0.167,0.1561,0.1591,0.178,0.1523,0.1571,0.1527,0.1801,0.1486,0.2219,0.2283,0.234,0.2571,0.2323,0,0,0,0,0]},{"header":{"parameterUnit":"m.s-1","parameterCategory":2,"la1":30.2991,"la2":30.254,"lo1":-89.0895,"lo2":-89.0444,"dy":0.0017,"dx":0.0017,"nx":28,"ny":28,"refTime":"2023-08-21T21:00:00:Z","depth":"2","parameterNumber":3,"parameterNumberName":"V-component_of_CURRENTS"},"data":[0,0,0,0,0,0,0,0,0,0,0,0,0,0,0,0,0,0,0,0,0,0,0,0,0,0,0,0,0,0,0,0,0,0,0,0,0,0,0,0,0,0,0,0,0,0,0,0,0,0,0,0,0,0,0,0,0,0,0.063,0.0629,0,0.0512,0.0511,0.0509,0.0415,0.0414,0.0413,0.0413,0.0265,0.0262,0.0259,0,0,0,0,0,0,0,0,0,0,0,0,0,0.0666,0.0666,0.063,0.0629,0.0628,0.0513,0.0511,0.0509,0.0415,0.0414,0.0413,0.0412,0.0266,0.0262,0.0258,0,0,0,0,0,0,0,0,0,0,0,0,0,0.0608,0.0666,0.0631,0.0569,0.0562,0.0513,0.0511,0.0508,0.0415,0.0414,0.0413,0.0412,0.0267,0.0263,0.0258,0.0251,0,0,0.0243,0.0241,0,0,0,0,0,0,0,0,0.0611,0.0606,0.0579,0.0573,0.0565,0.0479,0.0469,0.0421,0.0416,0.0469,0.0413,0.0411,0.0336,0.0326,0.0303,0.0244,0.0237,0.0243,0.024,0.0238,0.0236,0,0,0,0,0,0,0,0.0616,0.061,0.0581,0.0578,0.057,0.051,0.0501,0.0459,0.0408,0.0464,0.0457,0.0448,0.0332,0.0308,0.0299,0.0235,0.0243,0.0238,0.0235,0.0234,0.0145,0.0146,0,0,0,0,0,0,0.0642,0.0615,0.0585,0.0578,0.0588,0.0511,0.0501,0.0506,0.0409,0.0394,0.0449,0.0444,0.0317,0.0305,0.0293,0.0274,0.0238,0.0233,0.023,0.0145,0.0145,0.0146,0,0,0,0,0,0,0.0643,0.0641,0.059,0.0594,0.0584,0.0512,0.0518,0.0505,0.0476,0.0398,0.0382,0.0435,0.0316,0.03,0.0251,0.0267,0.0231,0.0227,0.0144,0.0145,0.0146,0.0237,0,0,0,0,0,0,0.0645,0.0642,0.0651,0.0597,0.0585,0.0568,0.0519,0.0503,0.0473,0.0465,0.0381,0.0366,0.0314,0.0259,0.0247,0.026,0.0223,0.0143,0.0144,0.0145,0.0234,0.0241,0.0248,0,0,0,0,0,0.0647,0.0661,0.0652,0.0648,0.0601,0.0569,0.0557,0.0499,0.0474,0.0468,0.0406,0.0368,0.0257,0.0255,0.0241,0.0253,0.0143,0.0144,0.0145,0.0231,0.024,0.0248,0,0,0,0,0,0,0.0671,0.0652,0.0641,0.0647,0.0617,0.0554,0.0542,0.0507,0.0454,0.0446,0.0369,0.035,0.032,0.0272,0.0272,0.0231,0.0197,0.0195,0.0267,0.0275,0.0282,0.0281,0.0219,0,0,0,0,0,0.0688,0.0699,0.0664,0.0669,0.0661,0.0606,0.0584,0.0552,0.05,0.0475,0.0414,0.0356,0.0316,0.0283,0.0242,0.0212,0.0184,0.0212,0.0219,0.0226,0.0215,0.0193,0.0198,0.015,0.015,0.015,0,0,0.0695,0.0689,0.0691,0.0676,0.0648,0.0642,0.0589,0.0569,0.056,0.0469,0.0433,0.0383,0.0316,0.0287,0.0269,0.0244,0.023,0.0227,0.0233,0.0219,0.0195,0.02,0.0204,0.0151,0.0151,0.0151,0,0,0.0716,0.0718,0.0731,0.0719,0.0696,0.0669,0.067,0.0617,0.0591,0.0554,0.0496,0.0454,0.0376,0.0336,0.0306,0.0327,0.0278,0.0313,0.0334,0.0315,0.0318,0.0321,0.0321,0.0323,0.0306,0.0306,0.0306,0,0.0722,0.0742,0.0726,0.0736,0.0733,0.0689,0.0699,0.0672,0.0606,0.0599,0.0555,0.0453,0.0404,0.0368,0.0366,0.0345,0.0321,0.0311,0.0325,0.0327,0.0328,0.0327,0.0328,0.031,0.031,0.0309,0.0309,0,0.0747,0.0767,0.0775,0.0784,0.078,0.0782,0.0757,0.0748,0.0712,0.0679,0.0636,0.0547,0.0483,0.0466,0.0411,0.0396,0.0375,0.0349,0.0308,0.0339,0.0336,0.0335,0.0317,0.0315,0.0314,0.0313,0,0,0.0754,0.0787,0.079,0.0816,0.081,0.0815,0.0823,0.082,0.0841,0.0753,0.075,0.0654,0.0595,0.0554,0.0483,0.0443,0.0444,0.0388,0.0385,0.0396,0.0405,0.0349,0.0343,0.041,0.041,0.041,0.041,0,0.0776,0.0821,0.0826,0.0871,0.0896,0.0887,0.0904,0.0901,0.0885,0.0875,0.0779,0.0743,0.0633,0.0599,0.054,0.047,0.044,0.0446,0.0364,0.0362,0.0315,0.0339,0.0278,0.0267,0.0409,0.0409,0.0409,0,0.0798,0.0833,0.0882,0.0944,0.0954,0.0973,0.1022,0.1033,0.1024,0.1007,0.0939,0.0861,0.0771,0.0684,0.0552,0.0553,0.0482,0.0421,0.042,0.0327,0.0304,0.0251,0.026,0.0407,0.0407,0.0408,0.0408,0,0.0824,0.0877,0.0927,0.0942,0.0994,0.1024,0.1049,0.1072,0.1105,0.1088,0.1096,0.0971,0.0909,0.0782,0.0621,0.0589,0.0498,0.0455,0.0343,0.034,0.0249,0.0237,0.0385,0.0385,0.0385,0.0385,0.0385,0,0.0855,0.0903,0.0948,0.0979,0.1053,0.1072,0.115,0.1169,0.12,0.125,0.1151,0.1149,0.0924,0.083,0.0681,0.0506,0.0547,0.0347,0.0329,0.0282,0.0274,0.0352,0.0349,0.0385,0.0385,0.0385,0.0385,0,0.0891,0.0914,0.0982,0.1043,0.107,0.1125,0.1215,0.1272,0.1298,0.1358,0.1347,0.1279,0.1159,0.0956,0.0777,0.0594,0.0444,0.0384,0.0347,0.0323,0.0287,0.0288,0.025,0.0248,0.0246,0.0245,0.0244,0,0.0928,0.0957,0.1029,0.107,0.1103,0.1185,0.1247,0.1308,0.1377,0.1444,0.1475,0.1389,0.1318,0.1038,0.0716,0.045,0.0471,0.0239,0.015,0.0283,0.027,0.0274,0.0278,0.0088,0.0085,0.0083,0.0082,0,0.0988,0.0995,0.1041,0.1115,0.1183,0.1278,0.1372,0.1445,0.1523,0.1585,0.165,0.1603,0.1304,0.0968,0.059,0.0416,0.0261,0.0188,0.0347,0.0122,0.0126,0.0115,0.0124,0.0064,0.0066,0.0067,0.0068,0.0069,0.1028,0.1051,0.1086,0.1164,0.1244,0.1356,0.1454,0.1561,0.1685,0.1733,0.1706,0.1586,0.125,0.0679,0.0403,0.0108,0.0143,0.0008,0.0016,0.0025,-0.0003,-0.0004,-0.0094,-0.0093,-0.0092,-0.0092,-0.0091,0,0.1057,0.1071,0.1137,0.1227,0.1327,0.1366,0.153,0.1627,0.1786,0.1717,0.1702,0.1296,0.0928,0.0618,0.0108,-0.0172,-0.0183,-0.021,-0.0185,-0.0167,-0.0151,-0.0187,-0.0327,-0.0328,-0.0329,-0.033,0,0,0.1072,0.1101,0.1124,0.1277,0.1359,0.1518,0.1624,0.1764,0.1776,0.1675,0.1517,0.1282,0.0921,0.0508,0.0162,-0.009,-0.0058,-0.0129,0.0077,0.0162,0.0182,-0.002,-0.0055,0,0,0,0,0]}],[{"header":{"parameterUnit":"m.s-1","parameterCategory":2,"la1":30.2991,"la2":30.254,"lo1":-89.0895,"lo2":-89.0444,"dy":0.0017,"dx":0.0017,"nx":28,"ny":28,"refTime":"2023-08-21T21:00:00:Z","depth":"4","parameterNumber":2,"parameterNumberName":"U-component_of_CURRENTS"},"data":[0,0,0,0,0,0,0,0,0,0,0,0,0,0,0,0,0,0,0,0,0,0,0,0,0,0,0,0,0,0,0,0,0,0,0,0,0,0,0,0,0,0,0,0,0,0,0,0,0,0,0,0,0,0,0,0,0,0,0.0936,0.0937,0,0.0991,0.0992,0.0993,0.108,0.1081,0.1083,0.1084,0.1144,0.1145,0.1145,0,0,0,0,0,0,0,0,0,0,0,0,0,0.0877,0.0878,0.0936,0.0937,0.0937,0.0991,0.0992,0.0993,0.108,0.1081,0.1083,0.1085,0.1144,0.1144,0.1145,0,0,0,0,0,0,0,0,0,0,0,0,0,0.0915,0.0878,0.0936,0.0986,0.0991,0.0991,0.0992,0.0993,0.1079,0.1081,0.1084,0.1086,0.1144,0.1144,0.1145,0.1102,0,0,0.1146,0.1146,0,0,0,0,0,0,0,0,0.0913,0.0918,0.0978,0.0983,0.0989,0.103,0.0993,0.1029,0.1079,0.1047,0.1084,0.1087,0.1104,0.1108,0.1115,0.1105,0.1108,0.1146,0.1146,0.1146,0.1146,0,0,0,0,0,0,0,0.091,0.0916,0.0959,0.0979,0.0985,0.0996,0.1004,0.1,0.1063,0.105,0.1056,0.106,0.1108,0.1114,0.1117,0.1108,0.1146,0.1146,0.1146,0.1146,0.1175,0.1176,0,0,0,0,0,0,0.0901,0.0913,0.0957,0.0961,0.0954,0.0995,0.1005,0.1015,0.1063,0.1073,0.1058,0.1064,0.1113,0.1116,0.1119,0.1201,0.1146,0.1146,0.1147,0.1174,0.1175,0.1176,0,0,0,0,0,0,0.0899,0.0904,0.0955,0.0937,0.0944,0.0994,0.1005,0.1015,0.106,0.1069,0.1079,0.1097,0.1114,0.1119,0.1155,0.1199,0.1147,0.1147,0.1174,0.1175,0.1175,0.1282,0,0,0,0,0,0,0.0897,0.0904,0.0929,0.0936,0.0945,0.0984,0.1003,0.1015,0.1056,0.1065,0.1105,0.1111,0.1117,0.1154,0.1155,0.1199,0.1147,0.1173,0.1174,0.1175,0.1277,0.1286,0.1293,0,0,0,0,0,0.0895,0.0912,0.093,0.0937,0.0971,0.0985,0.0991,0.1034,0.1056,0.1082,0.1111,0.1112,0.1161,0.1155,0.1156,0.1201,0.1173,0.1174,0.1175,0.1274,0.1284,0.1293,0,0,0,0,0,0,0.0895,0.0922,0.0943,0.0968,0.099,0.1,0.1028,0.1047,0.1088,0.1106,0.1119,0.1126,0.1174,0.1159,0.1151,0.1207,0.1166,0.1168,0.1241,0.1251,0.1258,0.1278,0.1147,0,0,0,0,0,0.0904,0.0923,0.095,0.0966,0.0987,0.1012,0.103,0.1054,0.1078,0.1101,0.1132,0.1153,0.1169,0.1191,0.1198,0.1225,0.1214,0.1251,0.1259,0.1266,0.1279,0.1274,0.1284,0.118,0.118,0.118,0,0,0.0904,0.0919,0.0932,0.0967,0.099,0.1016,0.103,0.1062,0.109,0.1096,0.1162,0.1182,0.1179,0.1224,0.1242,0.1227,0.1295,0.1268,0.1275,0.1284,0.1277,0.1287,0.1297,0.1181,0.1181,0.1181,0,0,0.0892,0.0934,0.0951,0.0985,0.1024,0.1033,0.1049,0.1091,0.1131,0.1168,0.1192,0.1247,0.1258,0.1294,0.13,0.1347,0.1333,0.1345,0.1415,0.141,0.142,0.1427,0.1457,0.1466,0.1356,0.1356,0.1356,0,0.0907,0.0927,0.0956,0.099,0.102,0.1044,0.1075,0.1104,0.1155,0.1189,0.12,0.1272,0.129,0.1351,0.1389,0.1371,0.137,0.1386,0.1424,0.1431,0.1437,0.1465,0.1474,0.1361,0.1361,0.136,0.136,0,0.0899,0.0949,0.0963,0.1013,0.1041,0.1075,0.1115,0.1164,0.12,0.1228,0.131,0.135,0.1397,0.1418,0.1426,0.1494,0.1482,0.1432,0.1407,0.1455,0.1481,0.1488,0.1369,0.1367,0.1366,0.1364,0,0,0.089,0.095,0.097,0.1013,0.1071,0.1092,0.1141,0.1194,0.1252,0.1305,0.1374,0.1445,0.1489,0.1501,0.1536,0.1563,0.1635,0.1536,0.1534,0.1581,0.1655,0.151,0.1504,0.1589,0.159,0.1591,0.1668,0,0.0901,0.0947,0.0977,0.1046,0.1087,0.1143,0.1188,0.124,0.1293,0.1368,0.1421,0.1509,0.1509,0.1584,0.1596,0.1625,0.1655,0.1621,0.1588,0.1588,0.1464,0.1506,0.1595,0.1673,0.1675,0.1676,0.1677,0,0.091,0.0944,0.1003,0.109,0.1118,0.1167,0.1266,0.1321,0.1409,0.1457,0.1533,0.1577,0.1673,0.165,0.1706,0.1683,0.1685,0.1693,0.1694,0.1523,0.1455,0.1604,0.169,0.1689,0.1688,0.1687,0.1686,0,0.0882,0.0977,0.1021,0.106,0.115,0.1213,0.1274,0.1366,0.1414,0.1563,0.1603,0.1685,0.1742,0.1754,0.1767,0.1755,0.1786,0.1755,0.1627,0.1619,0.1684,0.1674,0.1777,0.1777,0.1776,0.1776,0.1776,0,0.0888,0.0945,0.1037,0.1075,0.1155,0.1244,0.1339,0.142,0.1517,0.1569,0.1678,0.1704,0.1766,0.1775,0.1784,0.1718,0.179,0.1654,0.1621,0.1729,0.1724,0.1691,0.168,0.1779,0.1778,0.1778,0.1777,0,0.0853,0.0922,0.0993,0.1106,0.1147,0.1229,0.1342,0.1403,0.1534,0.1607,0.1666,0.1721,0.175,0.1778,0.1801,0.1721,0.1707,0.1663,0.1813,0.1785,0.1554,0.1548,0.1554,0.1549,0.1545,0.1542,0.1539,0,0.0829,0.0865,0.0976,0.1023,0.1092,0.1206,0.1261,0.14,0.1447,0.1586,0.1589,0.1666,0.1691,0.1604,0.1637,0.1646,0.1608,0.1615,0.1566,0.156,0.1529,0.1529,0.1528,0.1533,0.1532,0.1531,0.153,0,0.0784,0.0837,0.0878,0.095,0.1045,0.1104,0.1203,0.1215,0.138,0.1488,0.1499,0.1523,0.151,0.15,0.1508,0.1502,0.1626,0.1573,0.1582,0.1536,0.1535,0.1507,0.1511,0.1516,0.1518,0.1519,0.152,0,0.0744,0.0747,0.0796,0.0875,0.0966,0.1,0.1057,0.111,0.1175,0.1345,0.1323,0.1409,0.1478,0.1421,0.1423,0.1412,0.1391,0.1361,0.138,0.1396,0.13,0.1273,0.1155,0,0,0,0,0,0.0677,0.0661,0.0701,0.0783,0.0866,0.091,0.1004,0.1065,0.1214,0.1193,0.1264,0.1271,0.1275,0.128,0.1234,0.133,0.1387,0.127,0.136,0.144,0.1456,0.1352,0,0,0,0,0,0,0.0614,0.0642,0.0658,0.0706,0.0727,0.0801,0.0858,0.0949,0.0932,0.1078,0.1065,0.1189,0.118,0.1285,0.1205,0.1215,0.1245,0.1322,0.1319,0.1431,0.1445,0.1458,0.1357,0,0,0,0,0]},{"header":{"parameterUnit":"m.s-1","parameterCategory":2,"la1":30.2991,"la2":30.254,"lo1":-89.0895,"lo2":-89.0444,"dy":0.0017,"dx":0.0017,"nx":28,"ny":28,"refTime":"2023-08-21T21:00:00:Z","depth":"4","parameterNumber":3,"parameterNumberName":"V-component_of_CURRENTS"},"data":[0,0,0,0,0,0,0,0,0,0,0,0,0,0,0,0,0,0,0,0,0,0,0,0,0,0,0,0,0,0,0,0,0,0,0,0,0,0,0,0,0,0,0,0,0,0,0,0,0,0,0,0,0,0,0,0,0,0,0.0163,0.0163,0,0.0127,0.0127,0.0126,0.0114,0.0114,0.0115,0.0115,0.0076,0.0074,0.0073,0,0,0,0,0,0,0,0,0,0,0,0,0,0.0188,0.0187,0.0163,0.0163,0.0162,0.0127,0.0127,0.0126,0.0114,0.0114,0.0115,0.0115,0.0076,0.0075,0.0073,0,0,0,0,0,0,0,0,0,0,0,0,0,0.0166,0.0187,0.0163,0.0152,0.0151,0.0127,0.0127,0.0126,0.0114,0.0114,0.0115,0.0115,0.0077,0.0075,0.0073,0.0056,0,0,0.0067,0.0067,0,0,0,0,0,0,0,0,0.0168,0.0166,0.0154,0.0153,0.0152,0.0126,0.0121,0.0103,0.0114,0.0128,0.0115,0.0115,0.0092,0.0089,0.0081,0.0054,0.0052,0.0067,0.0066,0.0065,0.0065,0,0,0,0,0,0,0,0.0169,0.0167,0.0148,0.0154,0.0152,0.0138,0.0136,0.0117,0.0108,0.0126,0.0126,0.0122,0.0091,0.0083,0.008,0.0052,0.0067,0.0066,0.0064,0.0064,0.0006,0.0005,0,0,0,0,0,0,0.0176,0.0168,0.0149,0.0147,0.0161,0.0138,0.0135,0.0133,0.0109,0.0105,0.0122,0.0122,0.0086,0.0082,0.0079,0.0059,0.0065,0.0064,0.0062,0.0006,0.0006,0.0005,0,0,0,0,0,0,0.0177,0.0175,0.0151,0.0157,0.0153,0.0137,0.0136,0.0133,0.0127,0.0105,0.0102,0.012,0.0086,0.0081,0.0062,0.0057,0.0063,0.0061,0.0007,0.0006,0.0006,0.0017,0,0,0,0,0,0,0.0178,0.0175,0.0177,0.0158,0.0153,0.0139,0.0135,0.0132,0.0125,0.0124,0.0103,0.0099,0.0086,0.0064,0.006,0.0055,0.006,0.0007,0.0007,0.0006,0.0017,0.0017,0.0017,0,0,0,0,0,0.0179,0.018,0.0177,0.0175,0.0156,0.0139,0.0135,0.0124,0.0125,0.012,0.0105,0.01,0.0056,0.0062,0.0057,0.0051,0.0008,0.0007,0.0006,0.0018,0.0017,0.0017,0,0,0,0,0,0,0.0191,0.0178,0.0175,0.0173,0.0158,0.0137,0.0133,0.0126,0.011,0.0112,0.0093,0.0088,0.0069,0.0057,0.0065,0.0032,0.0031,0.0029,0.0042,0.0041,0.0041,0.0064,0.0058,0,0,0,0,0,0.0195,0.0193,0.0177,0.0174,0.0168,0.0152,0.0144,0.0137,0.0121,0.0114,0.0097,0.0079,0.0059,0.0049,0.003,0.0012,-0.0001,0.0004,0.0004,0.0004,0.0019,-0.0019,-0.0021,0.0002,0.0002,0.0002,0,0,0.02,0.0191,0.0191,0.0176,0.0165,0.0158,0.0148,0.0138,0.0133,0.0112,0.0098,0.0077,0.0054,0.0033,0.0023,0.0024,-0.001,0.0003,0.0003,0.0018,-0.002,-0.0022,-0.0024,0.0001,0.0002,0.0002,0,0,0.0208,0.02,0.0203,0.0189,0.0175,0.0164,0.0163,0.0143,0.0135,0.0117,0.01,0.008,0.0049,0.0031,0.0019,0.0005,-0.0011,-0.0004,0.0013,-0.0024,-0.0025,-0.0027,-0.0047,-0.005,-0.0004,-0.0004,-0.0004,0,0.0216,0.0216,0.0199,0.0195,0.0188,0.0169,0.0169,0.0154,0.013,0.0125,0.0116,0.0072,0.005,0.0028,0.0023,0.0006,-0.0012,0.0017,-0.0023,-0.0025,-0.0027,-0.0047,-0.0051,-0.0003,-0.0003,-0.0003,-0.0003,0,0.0222,0.0223,0.0221,0.0211,0.02,0.0195,0.0175,0.0166,0.0154,0.0139,0.0116,0.0082,0.006,0.0043,0.003,0.0005,-0.0002,-0.002,-0.002,-0.0029,-0.0049,-0.0054,-0.0003,-0.0003,-0.0003,-0.0003,0,0,0.024,0.0231,0.0232,0.0236,0.0211,0.0207,0.0194,0.0182,0.0183,0.015,0.0138,0.0103,0.0088,0.0074,0.0048,0.0019,-0.0017,-0.0002,-0.0004,-0.0015,-0.0088,-0.0098,-0.0104,-0.0046,-0.0047,-0.0048,-0.0096,0,0.0254,0.0263,0.0248,0.0255,0.0258,0.0234,0.0228,0.0212,0.0192,0.0172,0.0134,0.0121,0.0098,0.0094,0.0053,-0.0001,-0.0028,-0.0001,-0.0081,-0.0083,-0.0087,-0.0109,-0.005,-0.01,-0.0101,-0.0102,-0.0102,0,0.0266,0.0272,0.0292,0.0289,0.0289,0.0294,0.0289,0.0283,0.0247,0.023,0.0199,0.0165,0.0123,0.0101,0.0013,0.0029,-0.002,-0.0061,-0.0065,-0.0077,-0.0101,-0.009,-0.011,-0.011,-0.0109,-0.0109,-0.0108,0,0.0298,0.0301,0.0327,0.0324,0.0318,0.0332,0.0334,0.0313,0.0312,0.0282,0.0273,0.0204,0.0173,0.0101,0.0011,0.0012,-0.0097,-0.0109,-0.016,-0.0161,-0.0141,-0.0138,-0.0165,-0.0165,-0.0165,-0.0165,-0.0165,0,0.0315,0.033,0.0355,0.0367,0.0401,0.0384,0.0414,0.0402,0.0381,0.0386,0.0323,0.0295,0.017,0.0086,0.0012,-0.0092,-0.0098,-0.0153,-0.0177,-0.0135,-0.0132,-0.0144,-0.0141,-0.0167,-0.0166,-0.0166,-0.0165,0,0.0332,0.0352,0.0383,0.0407,0.0421,0.0453,0.0472,0.0485,0.0472,0.0472,0.047,0.0351,0.0246,0.0122,-0.0016,-0.0085,-0.0178,-0.021,-0.0147,-0.0167,-0.0213,-0.0209,-0.0264,-0.0265,-0.0266,-0.0266,-0.0267,0,0.0337,0.0362,0.0421,0.045,0.0468,0.0511,0.0539,0.054,0.0546,0.0512,0.0503,0.0395,0.0314,0.0109,-0.0032,-0.0183,-0.0203,-0.0243,-0.0231,-0.0207,-0.0225,-0.022,-0.0215,-0.0268,-0.0268,-0.0268,-0.0268,0,0.0339,0.0377,0.0409,0.0479,0.0531,0.0568,0.0604,0.0613,0.0618,0.0609,0.0542,0.0433,0.0287,0.0106,-0.0024,-0.0129,-0.0215,-0.0251,-0.025,-0.0239,-0.0212,-0.0228,-0.0223,-0.0271,-0.0271,-0.027,-0.027,0,0.0344,0.0371,0.0432,0.0496,0.0562,0.0604,0.062,0.0625,0.0635,0.0608,0.0579,0.044,0.0341,0.0133,0.0017,-0.0099,-0.0121,-0.0139,-0.0144,-0.0143,-0.0101,-0.005,-0.0077,0,0,0,0,0,0.0337,0.0374,0.0429,0.051,0.0579,0.0618,0.0648,0.0654,0.0673,0.0646,0.0617,0.0499,0.0299,0.0179,0.0065,-0.0009,-0.0154,-0.0148,-0.0179,-0.0284,-0.0281,-0.0256,0,0,0,0,0,0,0.0331,0.0384,0.0426,0.0521,0.0574,0.0645,0.0671,0.0676,0.0644,0.064,0.0519,0.0492,0.0272,0.0381,0.0073,0.0032,0.0,-0.0242,-0.0244,-0.0286,-0.0283,-0.0281,-0.0253,0,0,0,0,0]}]]